Location: Azul
(36.7830°S, 59.8500°W)
Time: 20:35:31
(UTC-03:00)

ISS - Pass Details

Date: 16 February 2020
Orbit: 415 x 422 km, 51.6° (Epoch: 27 February)

Event Time Altitude Azimuth Distance (km) Brightness Sun altitude
Rises 22:03:06 0° 275° (W) 2,375 0.8 -23.6°
Reaches altitude 10° 22:05:38 10° 256° (WSW) 1,514 -0.1 -24.0°
Maximum altitude 22:08:09 19° 208° (SSW) 1,082 -1.0 -24.4°
Drops below altitude 10° 22:10:41 10° 160° (SSE) 1,521 -0.7 -24.8°
Enters shadow 22:10:44 10° 159° (SSE) 1,533 -0.7 -24.8°
